DW3766 Weather Reports


time (UTC)temp
F
wind
direction
speed
knots
gust
knots
rain 1hr
in
rain 24hr
in
rain mn
in
humidity
%
barometer
mb
20260507032629 63 26 3.5 7.0 0.00 0.00 0.00 78 1014.0
20260507032201 63 28 3.5 7.8 0.00 0.00 0.00 78 1013.9
20260507031628 63 22 2.6 7.8 0.00 0.00 0.00 78 1014.1
20260507031159 63 49 2.6 6.1 0.00 0.00 0.00 78 1014.0
20260507030624 63 48 2.6 6.1 0.00 0.00 0.00 78 1014.0
20260507030154 63 360 2.6 7.0 0.00 0.00 0.00 78 1014.1
20260507025658 63 34 3.5 8.7 0.00 0.00 0.00 78 1014.0
20260507025134 63 53 3.5 8.7 0.00 0.00 0.00 78 1014.0
20260507024659 63 12 3.5 6.1 0.00 0.00 0.00 78 1014.0
20260507024131 63 22 2.6 6.1 0.00 0.00 0.00 78 1013.9
20260507023657 63 17 2.6 9.6 0.00 0.00 0.00 78 1013.8
20260507023206 63 23 5.2 9.6 0.00 0.00 0.00 78 1013.7
20260507022630 63 5 3.5 7.0 0.00 0.00 0.00 78 1013.7
20260507022155 63 360 4.3 7.0 0.00 0.00 0.00 78 1014.0
20260507021708 63 5 3.5 6.1 0.00 0.00 0.00 78 1013.8
20260507021132 63 5 2.6 6.1 0.00 0.00 0.00 78 1013.4
20260507020706 63 30 0.9 5.2 0.00 0.00 0.00 78 1013.4
20260507020134 63 53 3.5 7.0 0.00 0.00 0.00 78 1013.2
20260507015708 63 347 2.6 8.7 0.00 0.00 0.00 78 1013.2
20260507015132 63 32 5.2 9.6 0.00 0.00 0.00 78 1013.2
20260507014706 63 19 7.0 9.6 0.00 0.00 0.00 78 1013.2
20260507014210 63 355 1.7 7.0 0.00 0.00 0.00 77 1013.2
20260507013642 63 16 3.5 7.0 0.00 0.00 0.00 77 1012.9
20260507013204 64 24 4.3 11.3 0.00 0.00 0.00 77 1012.9
20260507012638 64 338 7.0 11.3 0.00 0.00 0.00 77 1012.9
20260507012139 64 346 6.1 12.2 0.00 0.00 0.00 77 1012.7
20260507011646 64 24 7.0 12.2 0.00 0.00 0.00 76 1012.7
20260507010647 64 347 4.3 8.7 0.00 0.00 0.00 76 1012.5
20260507010208 64 42 5.2 11.3 0.00 0.00 0.00 76 1012.5
20260507005640 64 13 6.1 11.3 0.00 0.00 0.00 76 1012.5
20260507005144 64 12 2.6 7.8 0.00 0.00 0.00 76 1012.1
20260507004646 64 19 4.3 8.7 0.00 0.00 0.00 76 1012.3
20260507004158 64 48 4.3 10.4 0.00 0.00 0.00 76 1012.5
20260507003724 64 355 5.2 10.4 0.00 0.00 0.00 75 1012.4
20260507003134 65 51 6.1 10.4 0.00 0.00 0.00 75 1012.2
20260507002636 65 38 6.1 9.6 0.00 0.00 0.00 75 1012.0
20260507002148 65 31 6.1 9.6 0.00 0.00 0.00 75 1011.8
20260507001653 65 10 5.2 9.6 0.00 0.00 0.00 75 1012.1
20260507001203 65 29 6.1 11.3 0.00 0.00 0.00 75 1012.2
20260507000627 65 11 7.0 11.3 0.00 0.00 0.00 74 1012.2
20260507000152 66 350 7.0 11.3 0.00 0.00 0.00 73 1012.0
20260506235644 66 329 7.8 10.4 0.00 0.00 0.00 74 1011.9
20260506235203 66 330 7.0 11.3 0.00 0.00 0.00 73 1011.8
20260506234617 66 11 7.0 12.2 0.00 0.00 0.00 73 1011.8
20260506234142 67 40 7.0 13.0 0.00 0.00 0.00 73 1011.4
20260506233653 67 355 6.1 13.0 0.00 0.00 0.00 73 1011.4
20260506233158 67 355 7.0 11.3 0.00 0.00 0.00 72 1011.2
20260506232712 68 20 5.2 10.4 0.00 0.00 0.00 72 1011.2
20260506232137 68 28 5.2 11.3 0.00 0.00 0.00 72 1011.2
20260506231703 68 355 7.0 10.4 0.00 0.00 0.00 71 1011.2
20260506231135 68 355 5.2 7.8 0.00 0.00 0.00 72 1011.3
20260506230659 68 59 5.2 8.7 0.00 0.00 0.00 72 1011.1
20260506230128 68 355 5.2 8.7 0.00 0.00 0.00 72 1011.1
20260506225632 68 18 5.2 12.2 0.00 0.00 0.00 72 1011.1
20260506225135 68 348 7.0 13.0 0.00 0.00 0.00 72 1011.1
20260506224707 68 13 7.8 13.0 0.00 0.00 0.00 72 1011.1
20260506224134 68 34 7.8 13.0 0.00 0.00 0.00 71 1011.2
20260506223708 68 9 7.8 12.2 0.00 0.00 0.00 71 1011.1
20260506223133 69 18 7.0 12.2 0.00 0.00 0.00 69 1011.1
20260506222706 70 23 6.1 13.0 0.00 0.00 0.00 69 1011.1
20260506222132 70 355 7.8 13.0 0.00 0.00 0.00 68 1010.8
20260506221635 71 355 6.1 11.3 0.00 0.00 0.00 69 1010.7
20260506221203 71 355 7.8 13.9 0.00 0.00 0.00 67 1010.7
20260506220629 72 331 9.6 13.9 0.00 0.00 0.00 66 1010.6
20260506220202 73 348 6.1 15.6 0.00 0.00 0.00 66 1010.6
20260506215708 74 32 7.8 15.6 0.00 0.00 0.00 65 1010.6
20260506215145 74 25 6.1 12.2 0.00 0.00 0.00 66 1010.4
20260506214710 74 42 7.0 12.2 0.00 0.00 0.00 66 1010.4
20260506214134 75 17 5.2 11.3 0.00 0.00 0.00 66 1010.6
20260506213648 75 326 6.1 11.3 0.00 0.00 0.00 66 1010.5
20260506213153 75 10 7.0 12.2 0.00 0.00 0.00 66 1010.4
20260506212727 75 34 5.2 11.3 0.00 0.00 0.00 67 1010.4
20260506212130 75 26 7.0 11.3 0.00 0.00 0.00 67 1010.3
20260506211654 75 33 7.0 11.3 0.00 0.00 0.00 66 1010.2
20260506211123 75 61 7.8 10.4 0.00 0.00 0.00 67 1010.3
20260506210650 75 53 4.3 10.4 0.00 0.00 0.00 68 1010.4
20260506210126 75 355 6.1 11.3 0.00 0.00 0.00 68 1010.4
20260506205650 75 17 6.1 11.3 0.00 0.00 0.00 68 1010.3
20260506205123 75 13 7.8 12.2 0.00 0.00 0.00 67 1010.4
20260506204649 76 26 6.1 10.4 0.00 0.00 0.00 68 1010.3
20260506204221 75 346 6.1 10.4 0.00 0.00 0.00 67 1010.2
20260506203704 76 49 7.8 10.4 0.00 0.00 0.00 67 1010.3
20260506203136 76 21 5.2 10.4 0.00 0.00 0.00 69 1010.2
20260506202702 76 32 5.2 13.9 0.00 0.00 0.00 70 1010.2
20260506202132 75 27 8.7 13.9 0.00 0.00 0.00 70 1010.1
20260506201656 75 5 7.8 15.6 0.00 0.00 0.00 70 1010.1
20260506201209 76 28 7.0 15.6 0.00 0.00 0.00 69 1010.3
20260506200638 76 42 8.7 13.9 0.00 0.00 0.00 67 1010.4
20260506200203 78 5 8.7 17.4 0.00 0.00 0.00 64 1010.5
20260506195636 80 37 7.0 17.4 0.00 0.00 0.00 62 1010.5
20260506195202 82 34 4.3 7.0 0.00 0.00 0.00 64 1010.2
20260506194614 82 61 3.5 7.8 0.00 0.00 0.00 64 1010.1
20260506194140 83 13 2.6 7.0 0.00 0.00 0.00 63 1010.0
20260506193613 83 53 3.5 6.1 0.00 0.00 0.00 62 1009.9
20260506193139 84 66 1.7 7.0 0.00 0.00 0.00 62 1009.8
20260506192616 84 111 0.9 7.0 0.00 0.00 0.00 61 1009.8
20260506192141 84 136 0.9 7.8 0.00 0.00 0.00 61 1009.9
20260506191653 84 261 1.7 7.8 0.00 0.00 0.00 60 1010.0
20260506191117 84 184 4.3 6.1 0.00 0.00 0.00 61 1009.9
20260506190145 83 94 1.7 8.7 0.00 0.00 0.00 62 1010.1
20260506185649 83 142 4.3 8.7 0.00 0.00 0.00 61 1010.2
20260506185121 83 278 0.9 4.3 0.00 0.00 0.00 64 1010.3
20260506184646 82 148 0.9 7.0 0.00 0.00 0.00 64 1010.3
20260506184119 82 169 3.5 7.0 0.00 0.00 0.00 64 1010.3
20260506183642 82 132 2.6 6.1 0.00 0.00 0.00 65 1010.4
20260506183120 81 128 1.7 6.1 0.00 0.00 0.00 66 1010.4
20260506182646 81 147 3.5 7.8 0.00 0.00 0.00 66 1010.4
20260506182118 80 94 4.3 8.7 0.00 0.00 0.00 67 1010.5
20260506181644 80 37 2.6 6.1 0.00 0.00 0.00 69 1010.7
20260506181215 79 344 1.7 5.2 0.00 0.00 0.00 69 1010.6
20260506180619 79 140 1.7 7.0 0.00 0.00 0.00 71 1010.7
20260506180144 79 80 2.6 7.8 0.00 0.00 0.00 71 1010.7
20260506175617 78 117 1.7 7.8 0.00 0.00 0.00 72 1010.7
20260506175143 78 41 3.5 7.0 0.00 0.00 0.00 72 1010.8
20260506174620 77 76 1.7 7.8 0.00 0.00 0.00 73 1010.8
20260506174146 77 77 1.7 6.1 0.00 0.00 0.00 75 1010.9
20260506173617 75 76 0.9 7.8 0.00 0.00 0.00 75 1010.9
20260506173142 75 36 4.3 7.8 0.00 0.00 0.00 75 1010.9
20260506172716 74 52 3.5 7.8 0.00 0.00 0.00 76 1010.9
20260506172221 74 25 2.6 7.8 0.00 0.00 0.00 76 1011.0
20260506171733 73 37 2.6 7.8 0.00 0.00 0.00 76 1011.2
20260506171137 73 34 4.3 7.8 0.00 0.00 0.00 76 1011.3
20260506170650 73 51 3.5 9.6 0.00 0.00 0.00 75 1011.3
20260506170116 73 41 6.1 9.6 0.00 0.00 0.00 76 1011.4
20260506165642 74 49 6.1 10.4 0.00 0.00 0.00 75 1011.4
20260506165155 74 46 4.3 10.4 0.00 0.00 0.00 75 1011.4
20260506164620 75 38 4.3 12.2 0.00 0.00 0.00 75 1011.4
20260506164153 77 32 8.7 12.2 0.00 0.00 0.00 74 1011.4
20260506163620 77 98 2.6 6.1 0.00 0.00 0.00 78 1011.1
20260506163151 77 93 3.5 8.7 0.00 0.00 0.00 78 1011.1
20260506162716 77 76 4.3 8.7 0.00 0.00 0.00 78 1011.1
20260506162229 77 80 4.3 7.8 0.00 0.00 0.00 78 1011.1
20260506161634 77 42 5.2 7.0 0.00 0.00 0.00 79 1011.1
20260506161140 77 40 4.3 7.8 0.00 0.00 0.00 79 1011.1
20260506160652 77 78 3.5 7.8 0.00 0.00 0.00 80 1011.0
20260506160117 77 112 3.5 7.8 0.00 0.00 0.00 81 1011.0
20260506155651 77 103 2.6 6.1 0.00 0.00 0.00 81 1011.0
20260506155116 77 53 3.5 6.1 0.00 0.00 0.00 82 1011.0
20260506154650 76 95 3.5 6.1 0.00 0.00 0.00 83 1011.0
20260506154120 76 86 1.7 4.3 0.00 0.00 0.00 83 1011.0
20260506153645 76 51 1.7 4.3 0.00 0.00 0.00 84 1010.9
20260506153118 76 104 1.7 3.5 0.00 0.00 0.00 85 1010.8
20260506152643 76 88 1.7 3.5 0.00 0.00 0.00 85 1010.8
20260506152115 76 130 0.0 4.3 0.00 0.00 0.00 86 1010.5
20260506151642 75 142 1.7 4.3 0.00 0.00 0.00 86 1010.4
20260506151154 75 123 0.0 3.5 0.00 0.00 0.00 86 1010.4
20260506150620 75 123 0.9 3.5 0.00 0.00 0.00 86 1010.2
20260506150154 75 154 1.7 3.5 0.00 0.00 0.00 87 1010.2
20260506145618 75 138 0.0 3.5 0.00 0.00 0.00 87 1010.2
20260506145144 75 165 0.9 3.5 0.00 0.00 0.00 87 1010.2
20260506144654 75 135 1.7 3.5 0.00 0.00 0.00 87 1010.1
20260506144218 75 146 1.7 3.5 0.00 0.00 0.00 87 1010.0
20260506143708 75 148 0.9 1.7 0.00 0.00 0.00 87 1010.1
20260506143133 75 116 0.9 1.7 0.00 0.00 0.00 87 1010.2
20260506142707 75 129 0.9 1.7 0.00 0.00 0.00 87 1010.3
20260506142232 75 128 0.0 0.9 0.00 0.00 0.00 87 1010.3
20260506141643 75 129 0.0 3.5 0.00 0.00 0.00 87 1010.2
20260506141206 75 128 0.9 3.5 0.00 0.00 0.00 87 1010.3
20260506140639 75 88 1.7 4.3 0.00 0.00 0.00 87 1010.1
20260506140146 75 117 1.7 4.3 0.00 0.00 0.00 87 1009.8
20260506135615 75 113 0.9 4.3 0.00 0.00 0.00 87 1009.7
20260506135149 75 112 1.7 5.2 0.00 0.00 0.00 87 1009.4
20260506134615 75 115 2.6 5.2 0.00 0.00 0.00 87 1009.2
20260506134142 75 121 1.7 5.2 0.00 0.00 0.00 87 1009.1
20260506133634 75 118 2.6 5.2 0.00 0.00 0.00 87 1009.0
20260506133157 75 148 1.7 6.1 0.00 0.00 0.00 87 1008.9
20260506132710 75 146 2.6 6.1 0.00 0.00 0.00 87 1008.8
20260506132132 75 128 1.7 4.3 0.00 0.00 0.00 87 1008.8
20260506131137 75 128 3.5 6.1 0.00 0.00 0.00 87 1008.8
20260506130704 75 115 2.6 5.2 0.00 0.00 0.00 87 1008.8
20260506130139 75 90 1.7 5.2 0.00 0.00 0.00 87 1008.7
20260506125708 74 93 1.7 5.2 0.00 0.00 0.00 87 1008.7
20260506125138 74 131 3.5 5.2 0.00 0.00 0.00 87 1008.5
20260506124703 74 146 2.6 6.1 0.00 0.00 0.00 87 1008.5
20260506124134 74 111 3.5 7.0 0.00 0.00 0.00 87 1008.5
20260506123701 74 109 2.6 6.1 0.00 0.00 0.00 87 1008.5
20260506123124 74 122 2.6 4.3 0.00 0.00 0.00 87 1008.5
20260506122656 74 134 2.6 5.2 0.00 0.00 0.00 87 1008.5
20260506122158 74 135 3.5 5.2 0.00 0.00 0.00 87 1008.5
20260506121630 74 122 3.5 4.3 0.00 0.00 0.00 87 1008.4
20260506121154 74 142 1.7 3.5 0.00 0.00 0.00 87 1008.5
20260506120631 74 157 1.7 2.6 0.00 0.00 0.00 87 1008.5
20260506120157 74 144 1.7 4.3 0.00 0.00 0.00 87 1008.5
20260506115711 74 145 1.7 4.3 0.00 0.00 0.00 87 1008.5
20260506115137 74 167 1.7 2.6 0.00 0.00 0.00 87 1008.5
20260506114711 74 141 0.9 3.5 0.00 0.00 0.00 87 1008.4
20260506114135 74 140 0.9 3.5 0.00 0.00 0.00 86 1008.5
20260506113700 74 204 0.0 0.0 0.00 0.00 0.00 86 1008.5
20260506113130 74 205 0.0 0.0 0.00 0.00 0.00 86 1008.5
20260506112655 74 204 0.0 0.0 0.00 0.00 0.00 86 1008.5
20260506112133 74 204 0.0 0.0 0.00 0.00 0.00 86 1008.5
20260506111650 74 205 0.0 0.0 0.00 0.00 0.00 86 1008.5
20260506111140 74 205 0.0 0.0 0.00 0.00 0.00 86 1008.5
20260506110706 74 204 0.0 0.0 0.00 0.00 0.00 86 1008.5
20260506110139 74 205 0.0 1.7 0.00 0.00 0.00 86 1008.5
20260506105645 74 175 0.0 1.7 0.00 0.00 0.00 86 1008.5
20260506105205 74 175 0.9 1.7 0.00 0.00 0.00 86 1008.5
20260506104617 74 195 0.9 4.3 0.00 0.00 0.00 86 1008.3
20260506104122 74 160 0.9 4.3 0.00 0.00 0.00 86 1008.3
20260506103652 74 151 1.7 4.3 0.00 0.00 0.00 86 1008.2
20260506103156 74 196 2.6 7.0 0.00 0.00 0.00 86 1008.2
20260506102621 75 182 2.6 6.1 0.00 0.00 0.00 86 1008.2
20260506102155 75 182 2.6 6.1 0.00 0.00 0.00 86 1008.3
20260506101624 75 188 3.5 7.8 0.00 0.00 0.00 86 1008.3
20260506101159 75 182 4.3 8.7 0.00 0.00 0.00 86 1008.3
20260506100703 75 173 5.2 8.7 0.00 0.00 0.00 86 1008.3
20260506100124 75 204 4.3 8.7 0.00 0.00 0.00 85 1008.2
20260506095650 75 196 5.2 8.7 0.00 0.00 0.00 85 1008.2
20260506095140 75 216 2.6 9.6 0.00 0.00 0.00 85 1008.2
20260506094706 75 223 4.3 9.6 0.00 0.00 0.00 85 1008.1
20260506094131 75 186 5.2 8.7 0.00 0.00 0.00 85 1008.2
20260506093704 75 165 4.3 8.7 0.00 0.00 0.00 85 1008.1
20260506093128 75 194 3.5 8.7 0.00 0.00 0.00 85 1008.1
20260506092701 75 212 3.5 7.8 0.00 0.00 0.00 85 1008.2
20260506092128 75 198 3.5 7.0 0.00 0.00 0.00 85 1008.1
20260506091701 75 187 2.6 8.7 0.00 0.00 0.00 85 1008.0
20260506091229 75 186 5.2 8.7 0.00 0.00 0.00 85 1008.0
20260506090641 75 165 5.2 9.6 0.00 0.00 0.00 85 1008.0
20260506090126 75 196 6.1 9.6 0.00 0.00 0.00 85 1008.0
20260506085651 75 146 4.3 7.8 0.00 0.00 0.00 85 1008.0
20260506085225 75 161 3.5 7.0 0.00 0.00 0.00 85 1007.9
20260506084629 75 175 2.6 7.0 0.00 0.00 0.00 85 1008.0
20260506084155 75 157 4.3 9.6 0.00 0.00 0.00 85 1007.9
20260506083643 75 175 6.1 13.0 0.00 0.00 0.00 85 1007.9
20260506083205 75 158 7.0 13.0 0.00 0.00 0.00 85 1007.9
20260506082631 75 168 5.2 12.2 0.00 0.00 0.00 85 1007.8
20260506082204 75 205 6.1 12.2 0.00 0.00 0.00 85 1007.8
20260506081630 75 177 5.2 11.3 0.00 0.00 0.00 85 1007.9
20260506081202 75 137 3.5 11.3 0.00 0.00 0.00 85 1008.0
20260506080629 75 161 7.0 12.2 0.00 0.00 0.00 85 1008.0
20260506080201 75 174 7.0 12.2 0.00 0.00 0.00 85 1008.0
20260506073145 75 160 5.2 10.4 0.00 0.00 0.00 85 1008.2
20260506072614 75 142 6.1 9.6 0.00 0.00 0.00 85 1008.2
20260506072145 75 167 4.3 9.6 0.00 0.00 0.00 85 1008.3
20260506071712 75 198 3.5 9.6 0.00 0.00 0.00 85 1008.4
20260506071116 75 171 5.2 7.8 0.00 0.00 0.00 85 1008.4
20260506070651 75 169 4.3 9.6 0.00 0.00 0.00 85 1008.5
20260506070117 75 149 4.3 9.6 0.00 0.00 0.00 85 1008.6
20260506062131 75 157 6.1 13.0 0.00 0.00 0.00 84 1008.6
20260506061629 75 147 5.2 7.8 0.00 0.00 0.00 84 1008.7
20260506061132 76 167 4.3 8.7 0.00 0.00 0.00 84 1008.6
20260506060638 76 169 5.2 11.3 0.00 0.00 0.00 84 1008.6
20260506060132 76 155 5.2 11.3 0.00 0.00 0.00 84 1008.7
20260506051128 76 167 3.5 9.6 0.00 0.00 0.00 83 1008.5
20260506050649 76 151 5.2 9.6 0.00 0.00 0.00 83 1008.5
20260506045117 77 148 5.2 8.7 0.00 0.00 0.00 83 1008.5
20260506044651 77 131 4.3 8.7 0.00 0.00 0.00 83 1008.5
20260506044134 77 136 6.1 9.6 0.00 0.00 0.00 83 1008.4
20260506043645 77 140 6.1 9.6 0.00 0.00 0.00 83 1008.4
20260506043113 77 186 4.3 9.6 0.00 0.00 0.00 83 1008.5
20260506042644 77 164 4.3 10.4 0.00 0.00 0.00 82 1008.5
20260506042210 77 134 5.2 10.4 0.00 0.00 0.00 82 1008.3
20260506041642 77 140 5.2 8.7 0.00 0.00 0.00 82 1008.3
20260506041208 77 170 5.2 10.4 0.00 0.00 0.00 82 1008.3
20260506040638 77 139 6.1 10.4 0.00 0.00 0.00 82 1008.3
20260506040203 77 146 6.1 9.6 0.00 0.00 0.00 82 1008.1
20260506035628 77 151 3.5 7.8 0.00 0.00 0.00 82 1008.1
20260506035159 77 128 2.6 5.2 0.00 0.00 0.00 81 1008.1
20260506034628 77 125 2.6 5.2 0.00 0.00 0.00 81 1008.0
20260506034158 77 126 2.6 5.2 0.00 0.00 0.00 81 1007.9
20260506033624 77 159 2.6 5.2 0.00 0.00 0.00 81 1007.8
20260506033158 77 145 2.6 5.2 0.00 0.00 0.00 81 1007.9